Temp
-4 -4 -5 -4 -5 -5 -4 -4 -4 -5 -5 -5 -5 -5 -5 -5 -5 -6 -6 -6 -7 -7 -7 -7 -6 -6 -6 -6 -6 -5 -5 -5 -5 -5 -5 -5 -5 -6 -6 -6 -6 -6 -6 -6 -6 -6 -6 -6 -6
-4 -5 -4 -5 -4 -5 -4 -4 -4 -5 -5 -5 -5 -5 -5 -6 -6 -6 -6 -6 -7 -7 -7 -6 -6 -6 -6 -6 -5 -5 -5 -6 -5 -5 -5 -5 -6 -6 -6 -6 -6 -6 -6 -6 -7 -6 -6 -6 -6
-5 -5 -4 -5 -4 -5 -4 -4 -4 -5 -5 -5 -5 -5 -6 -6 -6 -6 -6 -7 -7 -7 -7 -7 -6 -6 -6 -6 -6 -6 -6 -6 -5 -5 -5 -6 -6 -6 -6 -6 -6 -6 -6 -6 -6 -6 -6 -6 -7
-5 -5 -5 -4 -4 -4 -5 -5 -5 -5 -6 -6 -6 -6 -6 -6 -6 -7 -7 -7 -7 -7 -7 -6 -6 -6 -6 -6 -6 -6 -6 -6 -5 -5 -5 -5 -6 -6 -6 -6 -6 -6 -6 -6 -6 -6 -7 -7 -7
-4 -4 -4 -4 -4 -4 -5 -5 -5 -5 -6 -6 -6 -6 -6 -6 -7 -7 -7 -7 -7 -7 -7 -6 -6 -6 -6 -6 -6 -6 -6 -6 -5 -5 -5 -6 -6 -6 -6 -6 -7 -7 -7 -7 -6 -7 -7 -7 -7
-4 -4 -4 -5 -4 -4 -5 -5 -5 -5 -6 -6 -5 -6 -6 -6 -6 -7 -7 -8 -7 -7 -7 -6 -6 -6 -6 -6 -6 -6 -6 -5 -5 -5 -6 -6 -6 -6 -6 -7 -7 -7 -7 -7 -7 -7 -7 -7 -7
-5 -5 -4 -4 -4 -5 -5 -5 -5 -5 -5 -5 -5 -6 -6 -6 -6 -6 -7 -7 -7 -7 -6 -6 -6 -6 -6 -6 -6 -6 -6 -5 -5 -5 -5 -6 -6 -6 -6 -7 -7 -7 -6 -6 -6 -7 -7 -7 -7
-5 -5 -4 -4 -4 -5 -5 -5 -5 -6 -5 -5 -5 -5 -5 -6 -6 -6 -6 -7 -7 -6 -6 -6 -6 -6 -6 -6 -6 -6 -6 -6 -5 -5 -5 -5 -5 -5 -5 -6 -6 -6 -6 -7 -7 -6 -7 -7 -8
-5 -5 -5 -5 -5 -5 -5 -5 -4 -5 -5 -6 -5 -5 -5 -5 -6 -6 -5 -6 -6 -6 -6 -6 -6 -6 -6 -6 -6 -6 -5 -5 -5 -5 -5 -5 -5 -5 -6 -6 -6 -7 -7 -6 -6 -7 -7 -7 -7
-5 -6 -5 -5 -5 -5 -5 -5 -4 -5 -5 -5 -5 -5 -5 -5 -5 -5 -5 -5 -6 -6 -6 -6 -5 -5 -6 -6 -6 -6 -5 -5 -5 -4 -5 -5 -5 -6 -6 -6 -6 -7 -7 -7 -7 -7 -6 -7 -7
-4 -4 -4 -5 -5 -5 -5 -5 -5 -5 -5 -5 -5 -5 -5 -4 -4 -5 -5 -6 -6 -5 -6 -6 -6 -5 -6 -6 -6 -6 -5 -5 -5 -5 -5 -6 -6 -6 -6 -6 -6 -6 -6 -7 -7 -7 -7 -6 -6
-5 -5 -4 -4 -4 -5 -5 -6 -6 -6 -5 -5 -5 -5 -5 -5 -4 -5 -5 -6 -6 -5 -5 -5 -6 -6 -6 -6 -6 -5 -5 -5 -5 -5 -5 -6 -6 -6 -6 -7 -7 -7 -7 -6 -7 -7 -7 -7 -7
-4 -5 -5 -6 -5 -5 -5 -6 -4 -5 -5 -5 -5 -4 -4 -5 -5 -5 -5 -5 -5 -6 -5 -6 -5 -5 -6 -6 -6 -6 -5 -5 -5 -6 -6 -6 -5 -6 -7 -7 -7 -7 -7 -7 -7 -7 -7 -7 -6
-5 -5 -4 -5 -5 -5 -5 -5 -5 -5 -6 -5 -5 -4 -4 -5 -5 -5 -5 -5 -5 -6 -6 -6 -5 -5 -5 -6 -6 -6 -5 -6 -6 -5 -6 -6 -6 -6 -7 -7 -6 -7 -7 -7 -7 -7 -7 -6 -6
-5 -5 -5 -5 -5 -5 -5 -6 -4 -5 -5 -5 -5 -4 -4 -4 -4 -4 -4 -4 -5 -5 -5 -5 -5 -5 -5 -5 -5 -6 -6 -6 -6 -6 -6 -6 -6 -7 -6 -6 -6 -6 -6 -7 -7 -7 -6 -7 -6
-5 -5 -6 -5 -5 -5 -6 -6 -6 -5 -5 -5 -5 -4 -4 -4 -4 -4 -4 -4 -4 -5 -5 -5 -5 -5 -5 -5 -5 -5 -5 -5 -5 -6 -6 -6 -6 -6 -6 -6 -7 -7 -6 -7 -7 -6 -6 -6 -7
-5 -5 -5 -5 -6 -5 -6 -5 -5 -5 -6 -5 -5 -4 -4 -4 -5 -4 -4 -5 -4 -5 -5 -5 -5 -5 -5 -5 -5 -5 -5 -5 -5 -6 -6 -6 -5 -5 -5 -5 -6 -6 -6 -6 -6 -6 -6 -7 -7
-6 -7 -5 -6 -5 -5 -5 -6 -6 -5 -5 -5 -5 -5 -4 -4 -4 -4 -4 -5 -4 -4 -4 -5 -5 -5 -5 -5 -5 -5 -5 -5 -5 -6 -5 -5 -6 -5 -5 -5 -5 -6 -6 -6 -6 -6 -6 -7 -8
-5 -6 -6 -6 -5 -4 -6 -5 -6 -5 -6 -5 -5 -4 -4 -4 -4 -5 -5 -4 -5 -5 -5 -5 -5 -5 -5 -4 -5 -5 -5 -5 -5 -5 -5 -5 -6 -6 -6 -6 -6 -6 -6 -6 -7 -7 -6 -7 -7
-5 -6 -7 -6 -5 -5 -5 -5 -5 -5 -6 -6 -5 -4 -5 -4 -4 -5 -5 -4 -4 -4 -5 -5 -4 -4 -4 -4 -4 -4 -4 -4 -5 -5 -6 -6 -6 -7 -7 -7 -7 -7 -7 -7 -6 -7 -7 -6 -7
-5 -6 -7 -6 -6 -6 -5 -5 -6 -6 -6 -6 -6 -5 -5 -5 -5 -5 -5 -4 -4 -4 -5 -5 -5 -5 -5 -4 -4 -4 -4 -5 -5 -5 -5 -5 -6 -6 -6 -7 -7 -7 -7 -7 -7 -7 -7 -7 -7
-4 -6 -6 -6 -6 -7 -6 -6 -6 -6 -6 -5 -4 -6 -6 -6 -6 -5 -6 -5 -5 -5 -5 -5 -6 -6 -6 -5 -5 -5 -5 -5 -6 -6 -6 -6 -6 -6 -6 -6 -7 -6 -7 -7 -7 -7 -6 -5 -5
-5 -5 -5 -7 -7 -6 -6 -6 -6 -4 -6 -5 -5 -4 -5 -7 -7 -6 -6 -6 -6 -6 -6 -6 -5 -6 -6 -6 -6 -7 -6 -6 -6 -7 -7 -7 -7 -6 -6 -7 -7 -7 -7 -7 -7 -6 -7 -5 -5
-6 -6 -6 -6 -6 -6 -7 -6 -6 -5 -6 -6 -6 -6 -5 -6 -7 -7 -7 -7 -6 -6 -6 -6 -6 -6 -7 -7 -7 -6 -6 -6 -7 -7 -7 -6 -6 -7 -7 -7 -7 -7 -7 -7 -7 -6 -5 -5 -5
-6 -7 -7 -7 -7 -7 -7 -6 -6 -6 -7 -6 -6 -5 -6 -6 -7 -8 -6 -7 -7 -7 -7 -7 -7 -7 -7 -7 -7 -7 -6 -7 -7 -7 -7 -6 -7 -7 -6 -6 -6 -7 -6 -6 -5 -5 -5 -4 -5
-7 -6 -6 -6 -7 -7 -7 -7 -7 -7 -7 -7 -6 -5 -6 -7 -6 -6 -4 -5 -6 -6 -7 -6 -7 -8 -7 -7 -7 -6 -7 -7 -7 -7 -7 -7 -7 -7 -7 -7 -7 -7 -7 -7 -6 -6 -6 -5 -5
-7 -7 -8 -8 -8 -7 -7 -8 -7 -7 -8 -7 -7 -7 -8 -7 -6 -6 -3 -3 -5 -6 -6 -6 -7 -7 -8 -7 -7 -6 -7 -8 -7 -7 -8 -8 -8 -9 -9 -9 -8 -8 -8 -8 -7 -7 -6 -6 -5
-8 -8 -8 -8 -8 -8 -8 -8 -7 -8 -8 -8 -8 -8 -8 -8 -6 -5 -5 -5 -5 -6 -6 -6 -7 -8 -8 -7 -7 -7 -7 -8 -8 -8 -8 -8 -9 -9 -10 -10 -10 -9 -9 -9 -8 -8 -7 -6 -6
-8 -8 -8 -8 -8 -8 -8 -8 -8 -8 -8 -8 -8 -9 -9 -9 -8 -7 -7 -7 -7 -6 -6 -7 -8 -8 -7 -7 -8 -8 -8 -8 -8 -8 -9 -8 -10 -10 -10 -11 -11 -10 -10 -9 -9 -8 -8 -8 -7
-9 -8 -9 -8 -8 -8 -8 -8 -8 -8 -8 -8 -9 -9 -9 -10 -9 -9 -9 -9 -8 -7 -8 -8 -8 -8 -8 -8 -8 -8 -8 -8 -8 -8 -9 -9 -9 -10 -10 -11 -11 -11 -11 -11 -10 -9 -10 -10 -10
Height
5910 5909 5909 5911 5914 5914 5913 5914 5916 5914 5914 5913 5913 5913 5913 5910 5909 5910 5907 5906 5906 5907 5908 5909 5910 5910 5911 5911 5912 5913 5914 5914 5914 5914 5913 5913 5914 5913 5912 5912 5911 5911 5911 5911 5910 5909 5907 5907 5906
5914 5913 5914 5914 5914 5915 5914 5915 5916 5916 5913 5914 5914 5914 5913 5911 5909 5908 5908 5908 5908 5908 5909 5910 5910 5911 5912 5912 5914 5915 5915 5916 5916 5916 5916 5916 5917 5916 5916 5915 5913 5914 5915 5915 5914 5912 5911 5909 5908
5913 5912 5917 5915 5914 5915 5918 5917 5917 5917 5915 5915 5915 5914 5913 5911 5909 5909 5909 5909 5909 5910 5910 5910 5911 5911 5913 5914 5915 5916 5916 5918 5919 5918 5918 5919 5918 5918 5918 5917 5916 5917 5917 5917 5917 5916 5914 5913 5911
5915 5917 5915 5918 5916 5918 5918 5918 5918 5917 5917 5916 5915 5915 5915 5913 5911 5910 5911 5910 5911 5911 5911 5912 5912 5913 5914 5916 5916 5917 5918 5919 5920 5919 5921 5922 5921 5921 5921 5920 5920 5921 5921 5921 5920 5919 5918 5916 5914
5915 5917 5916 5917 5918 5919 5919 5920 5920 5918 5919 5918 5917 5917 5916 5915 5913 5911 5912 5911 5911 5912 5913 5913 5913 5914 5915 5917 5917 5918 5920 5921 5922 5922 5923 5923 5924 5924 5923 5921 5921 5921 5921 5921 5922 5924 5921 5919 5918
5918 5920 5921 5920 5920 5920 5921 5921 5921 5920 5920 5920 5919 5919 5917 5914 5913 5912 5912 5912 5913 5913 5913 5913 5913 5913 5915 5916 5918 5920 5922 5923 5923 5924 5925 5927 5928 5927 5925 5924 5924 5924 5924 5924 5925 5924 5924 5924 5924
5920 5921 5922 5921 5920 5920 5920 5922 5920 5921 5923 5922 5921 5920 5920 5916 5913 5913 5914 5913 5914 5914 5914 5914 5915 5914 5916 5919 5921 5924 5924 5924 5926 5928 5929 5930 5931 5930 5930 5929 5928 5927 5927 5928 5929 5930 5927 5927 5925
5927 5926 5924 5922 5922 5923 5921 5923 5924 5924 5923 5923 5922 5922 5921 5918 5915 5914 5915 5914 5915 5915 5916 5916 5917 5918 5919 5922 5923 5925 5926 5929 5931 5934 5935 5935 5934 5932 5931 5932 5931 5931 5931 5930 5930 5932 5930 5929 5926
5928 5929 5925 5924 5925 5926 5925 5924 5926 5925 5924 5923 5923 5922 5923 5921 5919 5917 5918 5918 5918 5918 5918 5919 5920 5921 5922 5925 5927 5928 5929 5932 5933 5936 5936 5936 5936 5938 5939 5938 5936 5936 5934 5932 5933 5934 5935 5932 5929
5927 5925 5926 5927 5928 5926 5925 5926 5926 5928 5927 5928 5925 5922 5923 5924 5923 5921 5921 5921 5921 5921 5921 5922 5922 5923 5926 5928 5929 5930 5932 5935 5937 5937 5937 5939 5940 5940 5940 5938 5939 5936 5935 5935 5934 5934 5936 5935 5934
5929 5928 5928 5928 5929 5928 5928 5928 5929 5930 5928 5927 5925 5923 5923 5924 5924 5924 5922 5922 5922 5924 5925 5925 5925 5925 5928 5930 5931 5932 5934 5936 5937 5938 5937 5939 5940 5940 5940 5941 5942 5938 5936 5933 5934 5933 5934 5937 5937
5929 5929 5930 5929 5931 5930 5930 5929 5929 5930 5929 5928 5928 5927 5925 5923 5926 5927 5927 5927 5925 5926 5927 5928 5927 5927 5930 5931 5932 5934 5936 5937 5938 5939 5939 5940 5940 5941 5942 5943 5942 5940 5937 5936 5936 5935 5937 5936 5939
5928 5930 5933 5933 5933 5930 5930 5930 5931 5931 5930 5929 5928 5927 5927 5926 5925 5926 5928 5930 5927 5927 5927 5928 5929 5931 5931 5934 5934 5935 5936 5937 5939 5940 5941 5940 5941 5942 5942 5943 5944 5942 5939 5938 5936 5939 5937 5936 5936
5932 5931 5934 5932 5934 5932 5931 5930 5931 5932 5930 5929 5928 5928 5928 5929 5929 5928 5930 5929 5929 5930 5930 5930 5931 5932 5932 5935 5935 5936 5939 5940 5939 5940 5942 5940 5942 5942 5944 5944 5943 5942 5941 5939 5937 5938 5939 5938 5936
5930 5931 5932 5934 5933 5932 5931 5928 5928 5930 5930 5929 5930 5929 5930 5930 5930 5930 5929 5929 5929 5931 5933 5932 5932 5932 5934 5935 5936 5936 5936 5938 5938 5938 5940 5941 5942 5944 5943 5946 5946 5944 5944 5941 5939 5939 5938 5937 5935
5933 5935 5934 5934 5934 5933 5932 5931 5929 5929 5928 5929 5930 5930 5929 5930 5932 5930 5929 5929 5931 5931 5932 5932 5932 5933 5934 5934 5936 5937 5937 5940 5940 5939 5938 5938 5939 5941 5943 5941 5942 5942 5942 5940 5939 5938 5938 5935 5933
5933 5933 5935 5935 5933 5932 5931 5929 5928 5930 5929 5927 5929 5929 5929 5929 5930 5929 5929 5928 5929 5931 5932 5933 5934 5934 5935 5935 5935 5936 5936 5937 5938 5938 5938 5937 5937 5938 5941 5941 5939 5939 5937 5937 5937 5936 5933 5932 5931
5931 5932 5934 5934 5934 5932 5929 5930 5929 5928 5928 5924 5925 5927 5927 5928 5930 5930 5929 5929 5929 5930 5930 5932 5933 5934 5934 5935 5935 5934 5936 5936 5934 5934 5933 5933 5931 5929 5930 5933 5936 5934 5933 5929 5928 5930 5930 5930 5929
5930 5933 5933 5932 5932 5931 5929 5929 5929 5928 5929 5927 5925 5926 5926 5925 5926 5929 5928 5927 5928 5928 5928 5929 5929 5931 5932 5934 5935 5934 5934 5935 5935 5934 5932 5931 5930 5928 5928 5927 5927 5928 5929 5930 5927 5926 5927 5928 5926
5929 5928 5929 5928 5930 5934 5929 5929 5927 5926 5930 5930 5929 5928 5926 5925 5922 5925 5929 5927 5927 5928 5928 5928 5928 5928 5929 5930 5930 5931 5930 5931 5931 5931 5931 5930 5929 5929 5929 5926 5925 5927 5927 5926 5926 5925 5924 5923 5922
5932 5929 5927 5928 5929 5930 5926 5927 5926 5927 5927 5928 5930 5931 5927 5922 5923 5922 5927 5927 5926 5927 5928 5928 5928 5927 5927 5927 5926 5926 5928 5927 5926 5926 5926 5926 5925 5926 5923 5923 5924 5925 5926 5925 5923 5922 5922 5922 5920
5930 5931 5929 5928 5927 5926 5923 5925 5923 5924 5924 5921 5921 5919 5922 5919 5918 5919 5924 5926 5926 5926 5925 5927 5926 5926 5927 5927 5925 5924 5924 5923 5923 5923 5924 5924 5923 5923 5923 5920 5922 5919 5917 5918 5918 5917 5918 5917 5915
5929 5927 5927 5925 5926 5925 5924 5925 5922 5924 5923 5918 5916 5914 5912 5916 5919 5920 5920 5923 5922 5924 5924 5925 5925 5925 5925 5925 5924 5921 5920 5919 5920 5920 5920 5919 5918 5918 5917 5916 5914 5913 5912 5910 5910 5908 5911 5908 5902
5924 5922 5923 5923 5924 5923 5921 5922 5920 5920 5917 5912 5912 5913 5914 5912 5912 5915 5918 5920 5921 5920 5923 5920 5921 5921 5921 5921 5919 5918 5917 5915 5915 5915 5914 5913 5913 5914 5912 5911 5911 5910 5908 5908 5907 5906 5902 5900 5897
5919 5922 5921 5923 5921 5919 5917 5917 5917 5914 5912 5908 5909 5912 5911 5909 5901 5910 5915 5913 5918 5918 5920 5919 5919 5916 5916 5917 5916 5914 5912 5911 5910 5910 5910 5908 5908 5908 5907 5906 5904 5903 5902 5901 5901 5898 5894 5889 5887
5923 5922 5920 5917 5916 5914 5912 5912 5912 5911 5908 5904 5902 5901 5905 5907 5906 5913 5904 5907 5911 5914 5915 5915 5915 5913 5913 5910 5911 5908 5907 5905 5904 5905 5903 5902 5901 5900 5900 5898 5894 5893 5893 5892 5889 5886 5884 5882 5879
5917 5916 5915 5912 5912 5908 5907 5908 5908 5907 5903 5900 5901 5898 5903 5906 5905 5903 5903 5906 5904 5903 5907 5910 5909 5910 5910 5906 5906 5902 5900 5899 5898 5898 5898 5895 5893 5892 5891 5889 5887 5886 5883 5881 5878 5876 5874 5872 5869
5911 5912 5911 5910 5908 5907 5906 5904 5902 5901 5897 5897 5898 5894 5895 5897 5901 5902 5899 5898 5898 5902 5903 5904 5901 5903 5902 5901 5900 5896 5896 5893 5891 5891 5889 5887 5884 5882 5881 5879 5877 5876 5873 5871 5869 5867 5864 5862 5859
5910 5906 5903 5903 5903 5901 5901 5900 5898 5896 5894 5893 5894 5895 5892 5890 5888 5889 5892 5895 5898 5900 5898 5895 5895 5894 5896 5895 5893 5891 5890 5887 5884 5882 5880 5878 5875 5873 5871 5869 5868 5866 5865 5862 5859 5856 5854 5851 5849
5904 5902 5900 5898 5899 5895 5894 5895 5894 5892 5891 5890 5890 5890 5889 5887 5886 5886 5888 5889 5889 5888 5887 5888 5885 5886 5887 5886 5884 5882 5880 5879 5876 5873 5871 5869 5866 5864 5861 5859 5858 5856 5854 5851 5848 5845 5843 5841 5838
Wind_Speed
12 12 12 8 10 6 12 12 14 11 12 13 14 12 12 10 8 7 7 7 8 8 8 7 6 5 6 7 6 6 7 9 12 12 12 12 13 15 18 19 18 18 20 20 19 20 19 18 19
11 11 12 12 12 12 13 12 13 11 12 13 13 12 11 10 8 8 5 6 7 7 7 6 5 4 5 5 5 7 8 10 13 12 13 12 14 15 16 17 18 19 21 21 24 24 23 20 19
10 14 13 10 12 15 9 11 15 13 11 13 12 13 12 9 7 5 5 6 5 4 5 5 5 5 5 6 7 9 10 12 13 14 13 13 16 16 16 16 18 20 21 22 26 27 25 23 23
5 11 9 12 14 9 9 12 14 13 13 11 13 14 11 8 7 4 5 3 3 6 7 7 6 5 7 9 9 9 11 14 13 15 14 14 16 16 16 17 17 19 21 22 23 23 25 25 26
10 13 11 13 11 8 7 11 9 12 12 9 10 13 10 9 6 4 4 4 5 6 6 4 4 6 8 10 9 10 12 14 13 15 15 16 17 17 17 17 17 18 20 20 20 25 24 25 24
9 22 13 11 11 10 7 12 10 13 9 9 9 11 10 9 7 5 6 5 6 5 6 9 10 9 11 11 10 10 13 14 14 15 15 15 16 16 16 15 15 17 17 16 19 22 22 21 24
14 12 8 10 12 10 10 12 11 11 10 9 10 10 9 9 8 6 6 6 6 7 12 12 11 11 11 11 10 9 12 12 13 14 14 15 14 14 13 12 12 14 13 13 15 18 15 16 17
10 9 10 12 10 9 9 13 13 10 9 9 10 11 11 12 9 10 10 11 9 12 15 15 16 13 12 12 12 11 11 9 11 10 10 10 10 10 10 10 10 12 14 12 10 13 12 14 14
12 8 11 10 10 9 8 7 6 11 10 10 10 10 15 16 11 9 13 13 15 14 16 18 19 17 14 12 11 11 9 10 11 10 9 9 7 5 7 5 6 11 9 8 9 10 11 9 9
7 9 8 10 8 9 8 7 6 9 6 3 8 12 14 16 16 12 15 16 17 15 17 18 19 19 16 12 10 9 8 7 8 6 6 4 4 3 2 1 6 7 5 6 7 7 6 6 4
2 7 8 9 7 7 6 5 6 6 4 9 11 10 11 14 17 16 13 12 15 16 16 17 15 17 16 12 11 10 9 8 7 6 5 4 3 0 3 2 1 2 5 6 2 4 7 6 6
9 7 6 7 2 1 4 2 6 7 7 8 8 8 9 11 12 16 16 12 11 14 15 14 13 11 13 12 9 9 9 6 7 5 6 4 2 1 2 7 7 8 2 3 5 9 10 6 7
8 9 5 13 2 4 6 4 6 4 3 2 5 7 8 8 9 11 12 13 12 10 12 14 10 6 11 9 8 8 10 7 6 6 5 1 1 7 10 5 8 9 11 7 4 7 7 6 6
11 9 5 8 3 5 6 4 3 4 4 7 4 7 8 6 5 5 6 11 13 10 8 9 10 10 10 7 9 8 8 5 4 5 4 2 4 4 5 7 7 10 6 7 9 7 8 8 11
10 7 7 3 2 1 1 8 5 6 4 4 5 3 5 6 6 1 5 6 11 10 9 7 9 11 10 8 8 8 5 5 2 2 1 4 7 4 5 5 5 5 6 7 7 8 9 7 9
2 5 1 2 4 5 6 7 3 7 7 3 6 3 2 5 5 4 3 2 4 5 8 6 6 7 10 7 7 5 3 3 4 4 6 6 7 4 4 5 5 5 7 5 8 9 13 15 16
4 5 3 8 2 3 2 7 10 6 8 5 5 6 1 2 3 5 4 3 2 0 2 3 3 4 4 5 6 7 6 6 7 7 7 10 12 11 7 7 8 7 9 10 9 12 14 15 18
8 4 6 6 5 12 6 6 10 5 6 2 6 7 3 2 2 3 4 2 4 3 4 3 3 3 4 4 6 7 7 7 9 11 12 14 17 20 19 16 12 14 14 14 15 13 13 13 13
2 2 9 7 8 9 10 5 5 10 12 4 4 5 2 3 4 1 2 3 2 2 4 6 5 7 7 8 9 10 10 9 10 12 14 17 18 22 23 22 21 20 20 20 20 17 16 12 13
1 9 13 13 12 8 3 3 6 9 16 5 5 2 6 5 8 5 4 3 3 2 5 6 6 6 8 10 11 13 15 14 13 14 14 16 17 21 20 23 24 22 23 24 24 23 20 21 18
13 13 9 2 4 8 11 8 8 12 13 14 7 18 9 7 5 8 7 5 4 5 4 4 4 5 8 9 11 13 15 13 15 18 20 20 22 22 25 24 23 29 27 26 26 25 25 25 25
5 8 9 5 8 13 9 8 23 21 23 14 26 10 13 13 12 10 6 5 3 4 4 6 4 3 7 10 11 13 14 17 18 17 17 21 23 25 27 28 25 31 33 26 30 26 25 32 31
2 4 5 7 9 14 20 14 18 10 18 20 13 16 17 20 12 9 10 5 4 2 2 6 6 5 7 9 13 14 13 15 17 13 15 16 21 23 27 23 29 24 23 29 23 22 18 27 31
17 9 8 13 15 15 23 15 18 14 18 21 15 18 17 18 23 15 10 5 2 2 6 9 8 8 8 13 12 15 19 16 17 19 21 22 24 25 29 29 33 35 31 32 27 25 23 30 25
23 24 23 14 20 22 22 21 17 16 23 24 22 14 19 29 29 14 12 11 6 7 11 10 10 11 13 13 15 15 19 23 20 19 25 29 31 33 38 38 36 32 32 27 27 33 24 25 25
23 18 20 17 20 27 28 25 22 18 19 23 19 17 11 16 7 9 8 1 3 3 11 18 14 16 18 20 18 20 24 23 21 24 29 30 34 33 34 37 38 35 29 27 25 22 21 25 27
22 15 15 17 14 22 25 24 21 16 20 21 19 13 10 15 8 12 13 10 11 16 17 17 17 18 17 15 16 21 22 26 29 30 30 31 34 33 33 35 36 31 24 26 22 20 23 23 25
17 14 13 12 17 12 9 13 17 15 12 17 17 14 18 18 16 13 8 13 17 18 20 23 24 18 18 20 22 27 26 31 30 32 32 33 35 36 34 33 30 26 25 25 23 24 27 27 30
24 23 20 20 15 19 21 19 26 27 24 26 16 13 16 18 23 19 18 19 19 22 25 25 21 25 27 29 30 30 33 33 34 36 34 37 37 38 38 34 30 26 27 27 29 33 35 37 40
30 28 24 24 22 23 28 28 28 30 28 26 24 18 11 11 9 12 20 21 25 27 24 25 25 27 31 31 32 34 35 36 35 34 35 36 37 38 38 36 34 30 29 30 34 37 38 39 39
Wind_Direction
147 150 151 123 99 137 98 85 85 78 84 80 77 75 77 79 78 88 98 118 135 145 148 160 160 153 148 134 133 130 143 134 122 113 105 96 94 90 92 96 98 95 91 84 82 81 85 87 80
147 155 147 114 117 95 65 74 69 77 71 62 66 62 60 64 60 81 106 120 137 142 151 152 139 151 141 134 131 144 139 133 127 118 108 101 99 93 98 102 103 99 94 89 85 83 78 74 78
183 107 119 115 111 89 77 72 71 70 63 63 54 42 41 46 59 74 110 132 131 132 152 150 147 131 126 144 145 139 144 133 128 116 112 108 105 107 109 110 105 103 98 94 92 83 78 73 80
98 102 136 113 86 73 78 69 65 62 68 63 47 38 35 24 50 52 89 131 114 117 128 121 131 150 138 134 141 143 143 135 131 126 117 116 112 115 114 111 106 102 98 94 96 89 78 80 78
106 117 117 82 74 62 78 85 75 81 79 60 44 45 26 20 52 52 67 65 87 95 106 95 140 161 146 140 146 148 141 135 135 134 133 128 121 121 118 115 115 109 105 102 97 89 91 90 84
106 126 122 103 84 94 91 83 80 77 66 57 41 46 27 19 15 26 53 67 93 78 76 94 109 138 145 148 152 147 139 140 142 142 137 126 124 125 124 124 120 113 104 101 98 94 98 89 84
128 121 106 109 77 58 70 88 79 63 46 41 50 55 50 36 19 42 82 91 84 59 85 93 104 118 131 143 138 135 140 146 148 145 133 131 127 125 125 125 118 111 102 88 79 84 85 81 86
140 132 104 84 80 46 82 88 81 66 45 43 37 47 56 56 32 37 77 89 83 75 87 95 95 94 104 115 129 136 138 132 137 130 119 122 125 133 128 122 104 89 84 82 73 73 67 78 79
133 85 72 91 99 76 56 68 77 71 44 23 29 34 63 71 61 49 73 93 85 94 99 97 95 90 94 106 115 123 135 128 130 138 141 142 138 91 66 69 77 67 81 83 71 63 73 61 56
89 72 78 73 88 67 42 24 73 69 56 26 45 31 40 76 77 67 68 90 92 98 107 102 95 92 93 102 115 129 130 116 98 115 141 105 74 61 58 2 83 92 76 64 53 51 53 87 44
162 71 80 56 57 38 40 16 43 68 33 22 29 34 30 61 75 80 72 75 92 96 105 103 104 103 106 111 121 127 125 112 104 109 123 119 108 70 261 207 286 140 131 133 80 48 5 80 80
95 79 79 75 164 125 44 83 16 27 8 17 18 24 34 34 68 85 93 95 104 106 95 89 95 102 108 113 115 118 108 100 112 72 100 89 150 155 280 279 27 56 179 167 51 35 7 4 72
112 103 87 101 285 18 29 23 35 38 347 33 35 24 31 48 40 55 80 93 87 99 98 102 102 111 104 102 95 109 105 91 95 108 77 97 305 308 193 348 80 37 68 37 37 357 349 323 338
160 150 100 70 54 43 27 318 12 40 352 337 28 28 25 26 71 98 104 97 94 95 112 122 121 111 105 117 108 88 80 66 65 99 94 324 40 349 351 9 50 52 35 10 19 352 324 330 324
174 74 78 80 104 178 1 333 353 18 6 331 320 22 34 21 2 336 111 111 106 110 106 125 124 122 136 143 121 116 154 116 137 287 56 338 328 339 349 345 344 341 344 337 317 320 326 329 305
339 205 249 104 201 170 99 54 338 337 336 330 298 295 68 31 16 349 15 24 100 125 120 118 110 137 146 155 146 156 217 190 212 256 287 252 259 281 242 276 286 303 299 306 300 310 297 320 321
239 222 279 283 217 192 82 56 3 12 342 326 293 274 215 93 44 41 19 343 310 176 133 141 154 153 158 184 197 195 219 250 261 255 268 284 282 267 267 267 275 271 287 298 294 301 316 322 314
196 195 314 283 253 225 161 308 1 297 299 267 257 252 241 112 41 52 68 21 320 280 262 243 254 245 236 229 243 256 249 253 272 282 286 291 301 306 314 312 305 301 300 304 302 305 307 306 304
296 64 13 310 276 212 184 279 266 295 275 249 194 205 165 151 136 150 148 146 186 205 252 263 249 274 281 288 285 282 282 284 292 300 305 315 316 312 319 315 313 316 312 307 302 305 306 288 300
318 32 322 273 278 282 237 341 4 302 309 264 232 200 129 136 137 145 216 194 171 174 196 241 253 265 269 272 276 284 291 301 299 300 304 303 301 303 306 305 307 311 307 300 295 294 290 290 293
70 52 60 216 268 311 257 291 326 331 327 326 298 292 213 158 167 138 195 204 201 190 188 221 256 286 292 285 280 276 280 279 275 280 288 296 300 299 300 297 295 308 297 289 290 289 295 292 280
51 77 85 307 310 301 279 326 332 304 357 323 329 224 208 195 183 165 163 219 194 197 191 195 226 275 292 288 297 297 285 282 285 287 288 292 294 296 299 290 299 301 280 287 288 276 305 308 289
243 244 219 262 289 306 315 324 347 291 339 348 332 294 230 206 172 155 141 163 186 240 267 275 275 271 269 277 293 276 276 282 287 287 293 293 299 306 303 330 297 312 324 312 309 291 301 320 306
308 287 289 271 288 301 320 322 319 347 343 331 330 310 289 226 208 173 149 170 209 243 267 285 290 272 264 280 258 270 271 267 275 289 296 300 307 315 320 318 320 320 327 326 305 315 301 305 315
300 319 288 301 282 286 300 309 317 339 341 327 315 318 273 230 184 134 170 147 191 260 268 268 267 279 284 273 279 276 275 267 273 285 301 305 308 311 311 314 316 318 315 305 294 303 297 301 296
291 307 273 277 285 283 291 301 318 320 322 315 318 329 328 308 14 204 243 8 299 281 252 283 268 309 287 282 279 270 263 285 292 297 298 298 301 302 303 305 313 316 313 313 309 303 294 292 280
301 309 282 280 322 308 296 291 299 310 310 307 323 349 353 348 352 229 222 249 315 329 320 307 293 293 272 277 267 273 282 283 288 294 294 293 296 302 304 306 308 310 300 306 290 278 287 280 273
293 265 279 286 300 310 333 305 290 298 287 294 318 327 311 313 295 262 289 319 314 302 299 299 301 291 286 272 266 268 281 290 294 295 297 297 300 301 302 304 305 298 292 288 267 265 265 264 266
290 270 266 262 267 278 280 282 286 290 294 296 304 298 300 297 297 295 310 313 300 297 289 296 291 288 285 278 280 283 285 288 290 292 296 298 300 298 299 299 296 286 278 278 268 262 266 261 266
289 262 272 268 267 261 262 269 273 274 280 288 291 285 284 289 297 287 303 304 307 298 290 284 285 288 288 286 289 288 288 288 291 294 295 294 294 295 296 294 293 290 284 279 273 268 276 276 273